Weather History for Havre, MT

Change the Weather History Date:

Thursday, August 29, 2013

  Actual Average Record
Temperature  
Mean Temperature 74 °F 64 °F  
Max Temperature 93 °F 79 °F 102 °F (2005)
Min Temperature 54 °F 48 °F 37 °F (2000)
Degree Days  
Heating Degree Days 0 4  
Month to date heating degree days 8 46  
Since 1 June heating degree days 129 209  
Since 1 July heating degree days 16 76  
Cooling Degree Days 9 2  
Month to date cooling degree days 172 143  
Year to date cooling degree days 368 364  
Since 1 June cooling degree days 361 353  
Growing Degree Days 24 (Base 50)    
Moisture  
Dew Point 54 °F    
Average Humidity 57    
Maximum Humidity 93    
Minimum Humidity 21    
Precipitation  
Precipitation 0.09 in 0.03 in 0.52 in (1956)
Month to date precipitation 1.14 1.04  
Year to date precipitation 15.10 8.60  
Snow  
Snow 0.00 in 0.00 in 0.00 in (1999)
Month to date snowfall 0.0 0.0  
Since 1 June snowfall 0.0 0.0  
Since 1 July snowfall 0.0 0.0  
Snow Depth 0.00 in    
Sea Level Pressure  
Sea Level Pressure 29.95 in    
Wind  
Wind Speed 10 mph (SW)    
Max Wind Speed 47 mph    
Max Gust Speed 71 mph    
Visibility 10 miles    
Events Rain , Thunderstorm    
T = Trace of Precipitation, MM = Missing Value Source: NWS Daily Summary

Daily Weather History Graph

Daily Weather History Graph

Search for Another Location

Airport:

Trip Planner

Search our weather history database for the weather conditions in past years. The results will help you decide how hot, cold, wet, or windy it might be!

Date:

Astronomy

Aug. 29, 2013 Rise Set
Actual Time 6:32 AM MDT 8:06 PM MDT
Civil Twilight 5:59 AM MDT 8:38 PM MDT
Nautical Twilight 5:19 AM MDT 9:18 PM MDT
Astronomical Twilight 4:35 AM MDT 10:02 PM MDT
Moon 12:12 AM MDT (8/29) 3:52 PM MDT (8/29)
Length of Visible Light 14h 39m
Length of Day
13h 33m
Last Quarter, 37% of the Moon is Illuminated
Aug 29
Last Quarter
Sep 5
New
Sep 12
First Quarter
Sep 19
Full
Sep 26
Last Quarter

Hourly Weather History & Observations

Time (MDT) Temp. Heat Index Dew Point Humidity Pressure Visibility Wind Dir Wind Speed Gust Speed Precip Events Conditions
12:53 AM 62.1 °F - 55.0 °F 78% 29.91 in 10.0 mi WSW 8.1 mph - N/A   Clear
1:53 AM 59.0 °F - 55.0 °F 87% 29.92 in 10.0 mi WSW 9.2 mph - N/A   Clear
2:53 AM 57.9 °F - 54.0 °F 87% 29.93 in 10.0 mi West 6.9 mph - N/A   Clear
3:53 AM 57.9 °F - 54.0 °F 87% 29.93 in 10.0 mi West 9.2 mph - N/A   Clear
4:53 AM 55.9 °F - 54.0 °F 93% 29.95 in 10.0 mi West 8.1 mph - N/A   Clear
5:53 AM 57.0 °F - 53.1 °F 87% 29.96 in 10.0 mi SW 11.5 mph - N/A   Clear
6:53 AM 54.0 °F - 52.0 °F 93% 29.98 in 10.0 mi WSW 6.9 mph - N/A   Clear
7:53 AM 57.9 °F - 54.0 °F 87% 29.99 in 10.0 mi SW 4.6 mph - N/A   Clear
8:53 AM 66.9 °F - 55.9 °F 68% 29.99 in 10.0 mi WSW 9.2 mph - N/A   Clear
9:53 AM 75.0 °F - 54.0 °F 48% 29.99 in 10.0 mi SW 15.0 mph - N/A   Clear
10:53 AM 80.1 °F 80.0 °F 54.0 °F 40% 29.98 in 10.0 mi WSW 13.8 mph - N/A   Clear
11:53 AM 82.9 °F 81.9 °F 54.0 °F 37% 29.98 in 10.0 mi SW 10.4 mph - N/A   Clear
12:53 PM 87.1 °F - 52.0 °F 30% 29.96 in 10.0 mi SW 8.1 mph - N/A   Clear
1:53 PM 91.0 °F - 46.0 °F 21% 29.93 in 10.0 mi Calm Calm - N/A   Clear
2:53 PM 91.9 °F - 46.9 °F 21% 29.92 in 10.0 mi SSE 5.8 mph - N/A   Clear
3:53 PM 93.0 °F - 50.0 °F 23% 29.89 in 10.0 mi SE 9.2 mph - N/A   Clear
4:53 PM 91.9 °F - 50.0 °F 24% 29.88 in 10.0 mi East 5.8 mph - N/A   Clear
5:53 PM 89.1 °F - 50.0 °F 26% 29.86 in 10.0 mi ESE 10.4 mph - N/A   Clear
6:53 PM 86.0 °F - 50.0 °F 29% 29.87 in 10.0 mi East 10.4 mph - N/A   Clear
7:53 PM 80.1 °F 80.0 °F 54.0 °F 40% 29.88 in 10.0 mi SE 8.1 mph - N/A   Clear
8:53 PM 75.9 °F - 52.0 °F 43% 29.86 in 10.0 mi East 8.1 mph - N/A   Clear
9:40 PM 73.4 °F - 51.8 °F 47% 29.93 in 8.0 mi NW 43.7 mph 71.3 mph N/A   Squalls
9:53 PM 72.0 °F - 54.0 °F 53% 29.96 in 10.0 mi NW 35.7 mph 58.7 mph N/A   Mostly Cloudy
10:24 PM 64.4 °F - 59.0 °F 83% 30.08 in 10.0 mi WNW 20.7 mph 27.6 mph 0.00 in Rain , Thunderstorm Light Rain
10:39 PM 62.6 °F - 60.8 °F 94% 30.10 in 6.0 mi NW 16.1 mph 28.8 mph 0.04 in Rain Rain
10:53 PM 64.0 °F - 60.1 °F 87% 30.04 in 7.0 mi NW 10.4 mph - 0.06 in Rain Rain
11:53 PM 64.0 °F - 60.1 °F 87% 29.95 in 10.0 mi ESE 8.1 mph - 0.03 in   Clear